N4DBJ Weather Reports


time (UTC)temp
C
wind
direction
speed
KPH
gust
KPH
rain 1hr
cm
rain 24hr
cm
rain mn
cm
humidity
%
barometer
mb
20260504081904 11 263 1.6 3.2 0.00 0.00 0.00 75 1010.8
20260504081401 11 217 1.6 3.2 0.00 0.00 0.00 75 1010.8
20260504080856 11 143 1.6 1.6 0.00 0.00 0.00 75 1010.8
20260504080354 11 269 1.6 4.8 0.00 0.00 0.00 74 1010.8
20260504070321 10 262 1.6 1.6 0.00 0.00 0.00 80 1011.5
20260504060241 7 113 0.0 0.0 0.00 0.00 0.00 92 1012.0
20260504050709 7 61 0.0 0.0 0.00 0.00 0.00 87 1012.5
20260504050206 8 61 0.0 0.0 0.00 0.00 0.00 86 1012.9
20260504045704 8 61 0.0 0.0 0.00 0.00 0.00 86 1012.6
20260504045204 8 61 0.0 0.0 0.00 0.00 0.00 86 1012.7
20260504044702 8 61 0.0 0.0 0.00 0.00 0.00 85 1012.6
20260504044159 8 61 0.0 0.0 0.00 0.00 0.00 84 1012.6
20260504043655 8 61 0.0 0.0 0.00 0.00 0.00 83 1012.6
20260504043153 8 61 0.0 0.0 0.00 0.00 0.00 82 1012.7
20260504042650 9 61 0.0 0.0 0.00 0.00 0.00 81 1012.7
20260504042146 9 61 0.0 0.0 0.00 0.00 0.00 81 1012.8
20260504041642 10 61 0.0 0.0 0.00 0.00 0.00 79 1012.6
20260504041138 10 61 0.0 0.0 0.00 0.00 0.00 77 1012.7
20260504040636 10 61 0.0 0.0 0.00 0.00 0.00 75 1012.9
20260504040133 10 61 0.0 0.0 0.00 0.00 0.00 75 1012.8
20260504035629 11 61 0.0 0.0 0.00 0.00 0.00 74 1012.8
20260504035126 11 60 0.0 0.0 0.00 0.00 0.00 73 1012.8
20260504034624 11 196 1.6 1.6 0.00 0.00 0.00 71 1012.7
20260504034121 12 186 1.6 1.6 0.00 0.00 0.00 69 1012.6
20260504033618 12 172 0.0 1.6 0.00 0.00 0.00 67 1012.4
20260504033116 12 245 1.6 1.6 0.00 0.00 0.00 67 1012.5
20260504032612 12 318 0.0 1.6 0.00 0.00 0.00 67 1012.2
20260504032109 12 246 0.0 3.2 0.00 0.00 0.00 67 1012.2
20260504031606 12 223 0.0 3.2 0.00 0.00 0.00 68 1012.4
20260504031102 12 110 4.8 4.8 0.00 0.00 0.00 68 1012.3
20260504030600 11 171 1.6 1.6 0.00 0.00 0.00 71 1012.2
20260504030056 10 168 1.6 3.2 0.00 0.00 0.00 76 1012.5
20260504025553 9 287 3.2 4.8 0.00 0.00 0.00 82 1012.4
20260504025050 8 195 1.6 1.6 0.00 0.00 0.00 85 1012.6
20260504024547 8 167 0.0 1.6 0.00 0.00 0.00 85 1012.9
20260504024044 8 167 0.0 0.0 0.00 0.00 0.00 85 1012.7
20260504023540 8 167 0.0 0.0 0.00 0.00 0.00 85 1012.6
20260504023036 8 167 0.0 0.0 0.00 0.00 0.00 85 1012.9
20260504022532 8 167 0.0 0.0 0.00 0.00 0.00 84 1012.8
20260504022029 9 166 0.0 0.0 0.00 0.00 0.00 84 1012.7
20260504021526 9 167 0.0 0.0 0.00 0.00 0.00 83 1012.7
20260504021023 9 167 0.0 0.0 0.00 0.00 0.00 82 1013.0
20260504020520 10 167 0.0 0.0 0.00 0.00 0.00 80 1012.8
20260504020017 10 167 0.0 0.0 0.00 0.00 0.00 80 1013.0
20260504015513 10 167 0.0 0.0 0.00 0.00 0.00 79 1013.0
20260504015009 10 167 0.0 0.0 0.00 0.00 0.00 78 1013.0
20260504014505 10 167 0.0 0.0 0.00 0.00 0.00 77 1012.8
20260504014003 10 167 0.0 0.0 0.00 0.00 0.00 78 1012.6
20260504013501 11 167 0.0 0.0 0.00 0.00 0.00 76 1012.9
20260504012956 11 167 0.0 0.0 0.00 0.00 0.00 76 1012.7
20260504012454 11 166 0.0 0.0 0.00 0.00 0.00 75 1012.7
20260504011952 11 167 0.0 0.0 0.00 0.00 0.00 74 1012.7
20260504011448 11 174 0.0 0.0 0.00 0.00 0.00 74 1012.4
20260504010944 11 174 0.0 0.0 0.00 0.00 0.00 72 1012.5
20260504010440 12 175 0.0 0.0 0.00 0.00 0.00 70 1012.2
20260504005936 12 175 0.0 0.0 0.00 0.00 0.00 71 1012.3
20260504005433 12 225 0.0 1.6 0.00 0.00 0.00 67 1012.4
20260504004931 13 225 0.0 0.0 0.00 0.00 0.00 65 1012.6
20260504004429 13 189 0.0 0.0 0.00 0.00 0.00 64 1012.4
20260504003925 14 189 0.0 1.6 0.00 0.00 0.00 61 1012.2
20260504003422 14 186 0.0 0.0 0.00 0.00 0.00 60 1012.2
20260504002918 15 187 0.0 1.6 0.00 0.00 0.00 60 1012.2
20260504002415 15 164 1.6 3.2 0.00 0.00 0.00 54 1012.2
20260504001913 16 227 0.0 3.2 0.00 0.00 0.00 52 1012.4
20260504001410 16 157 0.0 3.2 0.00 0.00 0.00 51 1012.5
20260504000906 16 267 1.6 3.2 0.00 0.00 0.00 48 1012.4
20260504000404 17 277 0.0 1.6 0.00 0.00 0.00 48 1012.5
20260503235901 17 223 1.6 4.8 0.00 0.00 0.00 46 1012.7
20260503235359 17 317 3.2 3.2 0.00 0.00 0.00 48 1012.8
20260503234856 17 136 0.0 1.6 0.00 0.00 0.00 46 1012.7
20260503234354 17 168 0.0 3.2 0.00 0.00 0.00 46 1012.7
20260503233851 18 112 1.6 4.8 0.00 0.00 0.00 44 1012.8
20260503233347 18 187 1.6 3.2 0.00 0.00 0.00 43 1012.9
20260503232844 19 245 0.0 4.8 0.00 0.00 0.00 42 1012.7
20260503232341 20 246 0.0 3.2 0.00 0.00 0.00 41 1012.8
20260503231839 20 261 1.6 8.0 0.00 0.00 0.00 43 1012.9
20260503231336 20 205 0.0 3.2 0.00 0.00 0.00 43 1013.0
20260503230832 20 193 3.2 4.8 0.00 0.00 0.00 41 1013.0
20260503230329 19 282 4.8 4.8 0.00 0.00 0.00 42 1013.3
20260503225827 20 358 1.6 4.8 0.00 0.00 0.00 43 1013.4
20260503225322 19 152 3.2 14.5 0.00 0.00 0.00 41 1013.4
20260503224819 20 168 3.2 11.3 0.00 0.00 0.00 41 1013.5
20260503224316 20 155 4.8 12.9 0.00 0.00 0.00 40 1013.4
20260503223814 20 167 4.8 14.5 0.00 0.00 0.00 40 1013.7
20260503223311 21 319 3.2 8.0 0.00 0.00 0.00 40 1013.7
20260503222807 21 263 3.2 8.0 0.00 0.00 0.00 38 1013.7
20260503222306 20 239 1.6 8.0 0.00 0.00 0.00 40 1013.6
20260503221803 20 170 6.4 8.0 0.00 0.00 0.00 40 1013.6
20260503221301 20 265 1.6 9.7 0.00 0.00 0.00 39 1013.5
20260503220757 20 203 6.4 9.7 0.00 0.00 0.00 44 1013.7
20260503220254 20 155 6.4 9.7 0.00 0.00 0.00 42 1013.7
20260503215751 21 147 8.0 14.5 0.00 0.00 0.00 39 1013.8
20260503215248 21 165 4.8 4.8 0.00 0.00 0.00 42 1013.7
20260503214746 20 222 3.2 4.8 0.00 0.00 0.00 39 1013.8
20260503214243 20 211 4.8 9.7 0.00 0.00 0.00 39 1014.1
20260503213741 20 198 4.8 12.9 0.00 0.00 0.00 38 1014.4
20260503213238 20 269 1.6 11.3 0.00 0.00 0.00 42 1014.4
20260503212734 20 138 8.0 14.5 0.00 0.00 0.00 41 1014.4
20260503212232 20 41 3.2 4.8 0.00 0.00 0.00 40 1014.6
20260503211730 20 138 8.0 12.9 0.00 0.00 0.00 42 1014.5
20260503211226 20 138 4.8 8.0 0.00 0.00 0.00 40 1014.6
20260503210721 20 77 1.6 9.7 0.00 0.00 0.00 38 1014.8
20260503210219 20 202 1.6 4.8 0.00 0.00 0.00 41 1014.8
20260503205714 19 112 3.2 8.0 0.00 0.00 0.00 43 1014.9
20260503205210 18 315 3.2 12.9 0.00 0.00 0.00 42 1014.8
20260503204707 19 143 4.8 12.9 0.00 0.00 0.00 41 1014.9
20260503204205 19 66 1.6 9.7 0.00 0.00 0.00 41 1015.0
20260503203702 19 130 9.7 11.3 0.00 0.00 0.00 44 1015.3
20260503203159 19 131 3.2 12.9 0.00 0.00 0.00 45 1015.4
20260503202656 20 98 4.8 16.1 0.00 0.00 0.00 41 1015.4
20260503202154 18 175 3.2 4.8 0.00 0.00 0.00 45 1015.6
20260503201652 19 225 1.6 14.5 0.00 0.00 0.00 43 1015.6
20260503201149 20 252 4.8 8.0 0.00 0.00 0.00 41 1015.8
20260503200645 18 196 4.8 8.0 0.00 0.00 0.00 40 1015.9
20260503200141 19 253 3.2 8.0 0.00 0.00 0.00 42 1015.8
20260503195639 18 108 0.0 8.0 0.00 0.00 0.00 42 1016.1
20260503195136 19 148 3.2 16.1 0.00 0.00 0.00 45 1016.3
20260503194633 19 201 3.2 3.2 0.00 0.00 0.00 42 1016.5
20260503194128 19 194 3.2 8.0 0.00 0.00 0.00 41 1016.3
20260503193625 18 42 3.2 8.0 0.00 0.00 0.00 41 1016.8
20260503193121 18 169 4.8 8.0 0.00 0.00 0.00 39 1016.8
20260503192616 18 217 4.8 11.3 0.00 0.00 0.00 42 1017.0
20260503192112 18 193 8.0 12.9 0.00 0.00 0.00 41 1017.1
20260503191609 17 294 8.0 9.7 0.00 0.00 0.00 40 1016.9
20260503191106 18 197 3.2 12.9 0.00 0.00 0.00 45 1016.9
20260503190604 18 178 8.0 11.3 0.00 0.00 0.00 41 1016.9
20260503190101 17 149 8.0 9.7 0.00 0.00 0.00 41 1017.0
20260503185557 17 146 4.8 12.9 0.00 0.00 0.00 42 1017.2
20260503185056 18 158 1.6 4.8 0.00 0.00 0.00 39 1017.3
20260503184552 18 24 1.6 11.3 0.00 0.00 0.00 41 1017.5
20260503184049 17 115 3.2 14.5 0.00 0.00 0.00 38 1017.2
20260503183546 18 169 6.4 9.7 0.00 0.00 0.00 42 1017.1
20260503183043 17 65 3.2 12.9 0.00 0.00 0.00 42 1017.2
20260503182541 17 157 6.4 11.3 0.00 0.00 0.00 45 1017.2
20260503182039 17 181 3.2 4.8 0.00 0.00 0.00 45 1017.6
20260503181536 17 271 6.4 16.1 0.00 0.00 0.00 45 1017.8
20260503181032 17 154 3.2 8.0 0.00 0.00 0.00 45 1017.3
20260503180529 17 163 4.8 11.3 0.00 0.00 0.00 47 1017.8
20260503180027 17 59 1.6 8.0 0.00 0.00 0.00 44 1017.9
20260503175524 17 15 1.6 9.7 0.00 0.00 0.00 41 1017.8
20260503175021 17 54 4.8 12.9 0.00 0.00 0.00 44 1017.7
20260503174519 17 265 6.4 11.3 0.00 0.00 0.00 46 1017.9
20260503174014 16 154 6.4 11.3 0.00 0.00 0.00 45 1017.8
20260503173509 17 195 6.4 16.1 0.00 0.00 0.00 43 1018.1
20260503173007 16 181 3.2 8.0 0.00 0.00 0.00 45 1018.0
20260503172504 17 297 6.4 9.7 0.00 0.00 0.00 42 1018.1
20260503172001 16 172 1.6 4.8 0.00 0.00 0.00 41 1018.2
20260503171457 17 211 4.8 12.9 0.00 0.00 0.00 41 1018.3
20260503170954 16 279 1.6 8.0 0.00 0.00 0.00 43 1018.1
20260503170450 16 174 12.9 14.5 0.00 0.00 0.00 43 1018.4
20260503150843 15 327 4.8 4.8 0.00 0.00 0.00 44 1019.4
20260503150339 15 247 3.2 3.2 0.00 0.00 0.00 43 1019.5
20260503140303 11 89 1.6 4.8 0.00 0.00 0.00 64 1019.3
20260503131233 6 81 0.0 0.0 0.00 0.00 0.00 99 1019.3
20260503130731 6 88 0.0 0.0 0.00 0.00 0.00 99 1019.2
20260503130227 6 121 0.0 0.0 0.00 0.00 0.00 99 1019.2
20260503120153 1 208 0.0 0.0 0.00 0.00 0.00 99 1019.0
20260503110621 0 343 0.0 0.0 0.00 0.00 0.00 99 1018.3
20260503110118 0 343 0.0 0.0 0.00 0.00 0.00 99 1018.4
20260503090508 0 343 0.0 0.0 0.00 0.00 0.00 99 1017.9